Vertical_Velocity
13 8 7 4 0 1 2 -0 -2 -1 -1 2 -1 -1 -1 0 1 -0 -1 -2 0 -6 4 -1 -2 -3 2 -3 -8 -0 1 3 -0 -1 1 -2 -3 1 -1 -1 -1 1 -0 -1 -0 1 -2
2 1 -0 6 2 2 1 -1 0 -2 -1 -0 1 -0 -2 -1 -1 1 -1 -2 1 -1 -1 -2 0 -1 -3 -3 1 -1 1 1 2 -2 -1 -0 -1 -0 0 0 -2 1 0 -1 -3 -6 -1
2 -1 -3 5 -2 2 1 -0 -2 3 -4 0 -1 -1 -1 -2 2 -0 -4 1 1 -0 -1 -2 -3 -5 0 -28 2 3 2 -2 -1 -0 -1 1 -0 3 0 -1 1 -0 -2 -3 -2 -1 -2
-12 8 -7 -4 0 0 -3 1 1 3 -2 -1 -2 2 -0 0 0 -1 -1 1 1 -1 0 -2 -2 -4 -17 -1 0 -2 0 -2 4 -1 -4 5 1 -1 -0 5 -3 -2 -4 -2 -4 -1 -1
-6 3 1 -7 -0 1 3 -2 2 2 1 -0 0 1 -1 1 0 2 -2 -1 1 0 -3 -0 2 -3 -19 -2 2 1 3 4 -0 3 -2 5 1 -1 2 -3 -4 -3 -1 -0 -8 1 -1
-6 -0 -4 -2 -4 -4 1 -3 1 5 3 0 2 1 -1 -1 5 -0 -2 2 1 2 -0 -2 1 1 -2 -2 -1 1 1 3 1 2 0 3 1 -1 -0 -3 -5 -2 0 -0 -0 -7 -2
0 -2 -6 -1 -5 -2 3 -1 -0 4 7 -4 1 -1 3 -1 -0 2 -1 1 1 2 1 -10 -2 -1 -0 1 -0 1 0 -1 0 4 -1 1 -3 -3 -6 -2 -1 -1 -0 -0 -2 -6 6
6 4 -4 -4 -2 -3 -1 2 4 -1 0 1 1 0 1 5 -0 2 2 -0 1 2 -6 -4 1 -7 3 -0 -3 3 3 -1 1 -1 2 -1 -1 -5 -1 0 -0 1 0 -3 -4 -1 6
-0 7 5 -5 -5 5 -3 0 1 4 1 -0 2 0 -0 1 -0 -1 -5 4 -0 4 3 -8 0 -5 -7 -1 -6 -8 1 3 -2 1 -0 -4 -6 0 -1 1 2 0 -1 -0 -1 -2 -2
8 2 3 4 9 1 0 -2 -2 -0 3 5 -2 3 3 -2 -2 3 -7 4 6 -3 -5 -11 -1 -2 4 3 -6 2 -1 -6 2 -5 -1 -3 -4 -1 0 -0 -2 1 -2 -0 1 0 -3
3 3 4 2 5 4 5 1 2 2 -2 2 4 -6 1 4 -1 -2 3 -3 2 0 -6 -4 4 3 1 -3 3 -0 4 8 -2 -1 -7 -16 -0 1 1 -10 -2 -9 -0 -1 -1 0 0
4 2 1 4 -1 3 6 4 6 -2 4 0 1 -0 2 1 -4 3 2 4 -2 -23 -19 -2 1 -0 1 1 0 1 4 3 2 -2 -0 -4 1 -2 -8 0 -2 -1 -2 -1 -1 -1 3
1 4 2 3 4 0 3 5 2 6 -7 1 1 -0 -2 2 -10 2 2 7 -3 -3 -11 0 -2 1 -0 1 2 -1 0 2 -5 -3 0 -0 -3 -0 -1 -1 -1 -1 -1 -3 -4 0 -5
12 0 4 5 7 5 3 8 3 3 -3 -1 0 4 -1 -3 -0 4 7 3 6 -8 -2 -1 -0 1 -3 -3 -1 2 1 0 -2 -1 -1 -2 -4 -3 -3 -8 -9 -2 -5 -3 -2 -1 -3
5 9 -0 4 10 6 8 -3 -2 4 -4 4 6 1 -3 -2 -4 9 9 5 -10 -3 -3 0 -3 0 0 0 -4 -0 -1 -2 -4 -4 -7 -1 -3 1 -0 -0 -11 -2 2 -5 -0 0 1
-1 1 7 -8 2 5 11 2 2 3 6 3 -0 2 -5 -5 6 8 9 -8 -1 -0 -0 -3 -1 -3 -0 -1 0 1 -0 -6 -2 -4 -1 -2 -2 -2 2 -3 0 -9 -6 -6 0 1 0
6 0 -2 13 2 1 14 -3 0 9 0 2 3 0 -1 -1 9 20 -2 -8 -2 0 -1 0 -0 -0 -1 -0 -2 -0 -4 -6 -0 0 1 -2 -4 -1 -2 -1 -6 1 1 1 -5 -2 -1
-1 9 3 18 8 9 3 6 -12 -2 20 10 -2 3 1 11 15 -0 -0 -12 -2 -3 2 -0 0 1 -0 -0 -0 0 -1 -1 1 -2 -1 -4 -4 0 -13 0 -2 -1 -1 -3 -1 -3 -1
-4 -3 -11 47 -6 -6 -1 -3 -10 7 6 -3 -1 -2 5 13 1 1 -0 -5 -0 4 -2 -1 -0 -1 -0 -0 -1 0 -0 -2 0 -1 -5 -5 -2 -1 -8 -8 -2 1 -1 -1 -0 -0 -6
3 0 -10 23 5 -3 -4 2 -6 6 1 14 -1 2 0 9 3 -0 1 -2 -0 -1 -2 1 -1 3 3 2 -0 -3 -0 -1 0 -0 0 -1 0 -5 -6 -7 -3 0 0 -0 1 4 -2
7 1 23 -3 1 -3 3 -3 -1 1 7 18 -2 -2 -2 1 4 1 4 1 1 0 -0 3 1 1 -1 1 1 -1 0 1 0 -1 1 -4 -0 1 -1 -1 0 -1 -1 -0 3 -8 1
-9 -1 -22 3 -2 8 8 4 0 -5 8 35 -8 -6 2 0 3 4 0 -3 -1 -2 3 -2 5 -1 1 -0 -5 -1 1 -1 -5 2 -0 0 -1 -0 -1 0 1 1 -0 0 -0 -1 1
1 -18 17 -0 3 3 6 -2 -2 9 -1 6 4 4 -2 -0 1 5 -9 -9 -7 -1 -4 -3 -0 2 3 -9 -2 -2 -1 -1 -2 -2 -1 -1 -1 1 -3 -0 0 4 -9 -2 -0 0 -1
8 -5 -5 10 3 7 3 -1 2 -1 7 -6 -4 -2 -2 1 -1 -5 -0 -0 -1 -4 -4 -2 7 8 -6 -1 3 0 0 1 3 -1 -3 -2 0 0 -0 1 6 -6 -0 -0 -1 -1 0
6 1 4 5 -4 1 -1 2 9 -2 1 1 6 -5 -0 -0 -2 3 2 -0 1 -1 4 3 -10 -1 -0 7 1 2 2 2 -1 -1 1 -3 -2 0 -1 -0 -4 1 -2 -4 -6 -7 -1
2 6 9 -1 0 -1 -2 4 -2 4 1 5 -1 2 -2 -4 -6 -4 -0 -2 -2 -0 -1 -3 -4 -4 3 -1 1 0 -2 -2 2 6 1 0 -1 -3 1 -1 -3 -8 0 -0 -2 -9 -1
-2 -0 -4 -1 -3 1 1 1 -5 4 9 -2 -6 -1 1 2 -5 -2 -3 -7 0 2 -2 1 2 7 3 0 1 1 -2 -4 -2 -2 1 1 2 -2 1 -1 -7 -3 -0 -0 -11 -21 0
-1 -7 -7 -4 -4 -1 -2 -1 -1 1 4 2 -13 2 -6 -2 -11 -5 2 -2 0 2 -2 -2 5 5 2 5 1 -2 2 -3 -1 -3 -3 -5 -4 -1 1 1 -10 -1 0 -4 -8 1 -1
-1 -3 -1 -2 -3 -1 -2 -2 2 5 4 8 1 0 -1 2 -2 -0 1 4 -4 5 2 4 -5 -1 -4 -1 2 1 0 0 -2 -2 2 -3 -10 -10 -10 -12 -1 0 -0 -1 -1 -5 0
Height
1488 1490 1491 1493 1495 1498 1499 1499 1501 1501 1503 1503 1503 1503 1504 1505 1505 1504 1504 1503 1503 1503 1501 1501 1500 1499 1497 1499 1494 1493 1493 1492 1493 1495 1497 1499 1500 1501 1502 1501 1504 1504 1500 1499 1500 1498 1496
1481 1482 1485 1486 1488 1491 1492 1493 1495 1495 1497 1497 1498 1499 1499 1501 1501 1500 1500 1501 1500 1500 1498 1498 1498 1497 1496 1497 1490 1489 1490 1491 1492 1494 1496 1499 1500 1502 1501 1500 1502 1501 1501 1498 1495 1495 1492
1477 1478 1479 1481 1482 1485 1487 1488 1489 1489 1491 1492 1494 1495 1496 1497 1497 1495 1497 1498 1497 1496 1495 1495 1494 1494 1492 1487 1486 1487 1487 1488 1489 1491 1494 1498 1500 1501 1500 1499 1500 1500 1501 1497 1492 1492 1491
1472 1474 1473 1477 1479 1479 1483 1483 1484 1485 1485 1487 1490 1491 1492 1493 1494 1493 1494 1495 1494 1493 1491 1492 1492 1492 1486 1482 1482 1483 1485 1483 1487 1490 1494 1496 1498 1501 1501 1499 1499 1501 1503 1505 1492 1492 1492
1468 1469 1469 1472 1475 1475 1478 1478 1481 1480 1481 1482 1485 1488 1489 1489 1491 1491 1491 1491 1491 1489 1488 1491 1491 1492 1480 1479 1479 1478 1481 1480 1481 1486 1492 1496 1498 1499 1499 1503 1509 1508 1511 1508 1501 1491 1494
1461 1463 1464 1466 1469 1472 1473 1475 1477 1478 1476 1478 1482 1484 1485 1487 1487 1488 1489 1489 1488 1487 1488 1489 1489 1494 1478 1476 1477 1477 1478 1479 1480 1484 1491 1496 1497 1500 1501 1505 1514 1509 1510 1510 1507 1495 1493
1455 1458 1458 1460 1464 1468 1469 1471 1473 1473 1474 1474 1480 1480 1482 1483 1485 1485 1488 1488 1491 1488 1486 1479 1478 1475 1473 1475 1475 1476 1476 1479 1482 1486 1490 1491 1499 1502 1492 1495 1501 1504 1505 1506 1505 1498 1497
1449 1450 1453 1455 1458 1462 1466 1467 1469 1469 1470 1472 1475 1477 1479 1481 1481 1483 1484 1486 1485 1486 1482 1472 1472 1472 1471 1473 1475 1474 1476 1479 1480 1484 1486 1492 1496 1490 1492 1495 1500 1503 1506 1508 1502 1495 1495
1441 1444 1447 1449 1453 1456 1460 1463 1464 1466 1467 1468 1473 1473 1476 1478 1478 1481 1482 1483 1484 1484 1483 1465 1462 1463 1465 1470 1472 1467 1474 1474 1477 1483 1484 1488 1485 1482 1489 1494 1498 1501 1505 1503 1503 1496 1494
1436 1439 1441 1444 1447 1451 1454 1458 1459 1462 1464 1464 1468 1472 1473 1475 1480 1478 1480 1482 1482 1485 1490 1464 1459 1457 1460 1463 1465 1460 1469 1472 1477 1480 1484 1485 1479 1484 1490 1490 1493 1500 1494 1498 1499 1502 1509
1429 1433 1435 1438 1441 1446 1450 1452 1457 1457 1459 1463 1464 1468 1473 1472 1473 1476 1480 1480 1484 1485 1502 1455 1455 1455 1456 1460 1458 1459 1463 1467 1473 1477 1480 1483 1480 1483 1489 1485 1488 1492 1489 1493 1498 1504 1506
1418 1423 1428 1431 1434 1439 1443 1447 1450 1453 1457 1459 1462 1465 1469 1470 1471 1475 1477 1482 1486 1500 1489 1452 1454 1456 1458 1458 1456 1459 1463 1465 1470 1474 1477 1479 1479 1480 1482 1482 1484 1487 1491 1495 1503 1509 1507
1409 1413 1419 1424 1427 1433 1437 1441 1444 1447 1452 1456 1458 1461 1464 1465 1469 1474 1477 1483 1493 1499 1447 1447 1450 1452 1454 1456 1455 1457 1463 1465 1471 1483 1482 1475 1476 1476 1477 1482 1485 1486 1491 1505 1509 1507 1498
1401 1404 1409 1415 1420 1424 1430 1434 1438 1441 1447 1453 1455 1455 1458 1461 1468 1472 1475 1482 1486 1452 1451 1443 1442 1446 1451 1451 1452 1454 1462 1469 1466 1466 1478 1479 1476 1473 1472 1473 1481 1489 1488 1490 1493 1503 1495
1396 1398 1401 1405 1410 1416 1421 1426 1432 1437 1441 1448 1450 1450 1452 1455 1462 1467 1472 1475 1466 1452 1445 1444 1442 1444 1448 1447 1448 1451 1458 1461 1457 1460 1467 1474 1471 1465 1467 1469 1473 1487 1485 1484 1492 1497 1496
1388 1391 1394 1397 1401 1407 1413 1419 1425 1431 1437 1441 1444 1447 1445 1452 1456 1463 1467 1460 1450 1446 1445 1444 1447 1445 1449 1447 1450 1451 1454 1447 1449 1449 1451 1458 1467 1461 1465 1468 1473 1475 1478 1492 1496 1487 1484
1381 1382 1387 1390 1394 1398 1404 1410 1417 1425 1431 1436 1441 1444 1441 1446 1453 1458 1454 1449 1444 1442 1447 1449 1447 1446 1445 1444 1447 1450 1446 1443 1442 1446 1448 1454 1461 1463 1464 1466 1470 1477 1479 1478 1482 1487 1484
1373 1373 1375 1383 1388 1392 1398 1406 1412 1419 1425 1430 1436 1439 1436 1441 1446 1449 1448 1440 1444 1441 1447 1448 1447 1446 1446 1446 1445 1444 1446 1444 1442 1443 1450 1450 1457 1457 1457 1458 1458 1462 1466 1469 1477 1484 1483
1364 1366 1369 1370 1377 1384 1391 1398 1406 1413 1417 1422 1429 1433 1434 1435 1436 1439 1441 1440 1442 1442 1445 1446 1444 1444 1443 1445 1448 1445 1442 1440 1441 1443 1447 1451 1461 1463 1468 1465 1463 1460 1457 1456 1461 1469 1463
1358 1361 1363 1364 1368 1377 1384 1390 1399 1407 1412 1419 1424 1426 1431 1429 1431 1434 1437 1439 1438 1438 1442 1443 1442 1442 1444 1445 1445 1444 1441 1442 1442 1442 1443 1447 1453 1450 1451 1451 1457 1462 1456 1453 1456 1461 1452
1350 1353 1355 1359 1363 1370 1378 1384 1392 1401 1408 1413 1415 1414 1415 1421 1426 1430 1432 1431 1432 1433 1435 1440 1441 1439 1443 1446 1443 1444 1442 1443 1443 1442 1444 1446 1448 1453 1448 1448 1451 1453 1452 1449 1449 1448 1450
1344 1348 1347 1354 1362 1368 1374 1379 1387 1395 1403 1405 1405 1408 1413 1416 1420 1425 1429 1429 1430 1430 1432 1435 1435 1436 1438 1442 1440 1439 1439 1441 1442 1442 1445 1446 1450 1451 1449 1446 1447 1450 1445 1446 1446 1445 1445
1336 1340 1340 1347 1357 1364 1369 1375 1383 1389 1396 1395 1398 1402 1407 1412 1417 1421 1420 1419 1420 1429 1429 1429 1433 1436 1437 1434 1436 1436 1438 1438 1438 1441 1443 1446 1449 1450 1443 1444 1449 1446 1432 1434 1435 1437 1434
1330 1335 1338 1344 1353 1360 1366 1371 1379 1385 1390 1394 1397 1402 1404 1410 1413 1413 1415 1419 1420 1424 1425 1426 1428 1430 1430 1432 1431 1432 1434 1434 1433 1429 1431 1440 1446 1445 1441 1445 1440 1429 1431 1427 1426 1429 1432
1330 1330 1337 1342 1350 1357 1363 1370 1374 1381 1388 1393 1397 1400 1400 1407 1408 1412 1415 1414 1417 1423 1420 1423 1425 1426 1427 1428 1432 1432 1432 1432 1423 1425 1427 1426 1438 1441 1442 1440 1432 1430 1429 1431 1429 1428 1431
1332 1335 1337 1343 1350 1356 1361 1366 1371 1378 1384 1390 1395 1398 1401 1403 1404 1407 1410 1413 1418 1419 1419 1416 1419 1421 1425 1429 1429 1425 1425 1416 1420 1422 1425 1426 1428 1435 1444 1448 1446 1433 1424 1424 1424 1432 1427
1332 1335 1339 1343 1348 1353 1358 1363 1369 1375 1381 1386 1390 1395 1399 1401 1401 1402 1405 1407 1412 1414 1414 1412 1414 1417 1420 1423 1427 1421 1414 1411 1413 1416 1420 1426 1432 1430 1436 1438 1432 1424 1423 1424 1438 1432 1425
1331 1333 1336 1340 1345 1349 1354 1360 1366 1372 1378 1383 1387 1391 1396 1399 1399 1399 1401 1402 1404 1408 1410 1411 1412 1411 1416 1417 1418 1415 1415 1408 1412 1417 1415 1417 1425 1428 1431 1435 1439 1420 1424 1427 1425 1424 1426
1326 1327 1329 1332 1338 1344 1349 1356 1362 1368 1375 1381 1384 1388 1394 1399 1397 1395 1397 1397 1399 1401 1402 1404 1403 1403 1403 1409 1411 1410 1405 1411 1408 1416 1411 1417 1415 1425 1422 1425 1421 1419 1420 1420 1421 1422 1427